Retour au catalogue

STARLINK-37004

ActifCommunicationsVLEO
NORAD 68089·PAYLOAD·🇺🇸 United States

Lancé Mar 4, 2026 depuis Vandenberg Space Force Base

Loading…

Prochains Passages (prochaines 24 heures)

TLE

FraisSource: CelesTrak SupGP

Époque: Sep 15, 2026, 04:24 UTC

1 68089C 26042W   26258.18381944  .00066446  00000+0  19632-2 0  2582
2 68089  53.1590  14.8880 0001074  90.4381 106.7485 15.34357152    10

Suivez STARLINK-37004 en temps réel avec AllMySat

Download on the App Store